Regional Weather Roundup
Issued by NWS Cleveland, OH

Home | Current Version | Previous Version | Graphics & Text | Print | Product List | Glossary On
Versions: 1 2 3 4 5 6 7 8 9 10 11 12 13 14 15 16 17 18 19 20 21 22 23 24 25 26 27 28 29 30 31 32 33 34 35 36 37 38 39 40 41 42 43 44 45 46 47 48 49 50
000
ASUS41 KCLE 211402
RWRCLE
OHIO REGIONAL WEATHER ROUNDUP
NATIONAL WEATHER SERVICE CLEVELAND, OH
1000 AM EDT TUE APR 21 2015

NOTE: "FAIR" INDICATES FEW OR NO CLOUDS BELOW 12,000 FEET WITH NO
SIGNIFICANT WEATHER AND/OR OBSTRUCTIONS TO VISIBILITY.

OHZ001>008-015>018-024>027-034-035-043-044-211500-
   NORTHWEST OHIO

CITY           SKY/WX    TMP DP  RH WIND       PRES   REMARKS
DEFIANCE       SUNNY     50  31  48 SW14G28   29.65S
FINDLAY        SUNNY     50  34  54 SW22G30   29.67S
TOLEDO EXPRESS SUNNY     48  30  49 SW29G35   29.62S
TOLEDO EXEC    SUNNY     50  31  48 SW26G35   29.63F
LIMA           SUNNY     50  34  54 SW18G31   29.69S
$$

OHZ009>014-019>023-028>033-038-089-211500-
   NORTHEAST OHIO

CITY           SKY/WX    TMP DP  RH WIND       PRES   REMARKS
CLE-HOPKINS    MOSUNNY   50  33  52 SW21G33   29.68S
CLE-LAKEFRONT  MOSUNNY   52  32  46 SW28G36   29.65F
CUY CO. ARPT   MOSUNNY   52  36  54 SW18G29   29.66F
LORAIN-ELYRIA  LGT RAIN  49  34  56 W23G31    29.67F
ASHTABULA      SUNNY     50  33  52 SW18G29   29.66F
AKRON-CANTON   MOSUNNY   50  34  54 SW23G31   29.70F
WOOSTER        SUNNY     48  35  60 SW20G26   29.70F
MANSFIELD      SUNNY     49  32  52 SW21G30   29.68F
YOUNGSTOWN     MOSUNNY   50  34  54 SW17G30   29.68F
$$

OHZ042-051>053-060>062-070>072-077>081-211500-
  SOUTHWEST OHIO

CITY           SKY/WX    TMP DP  RH WIND       PRES   REMARKS
CINC-COVINGTON SUNNY     52  33  48 SW15G24   29.81S
CINC-LUNKEN    SUNNY     53  34  48 SW20G28   29.82S
HAMILTON       SUNNY     54  34  46 SW13G20   29.80S
DAYTON         SUNNY     51  35  54 SW16      29.75F
WRIGHT-PAT AFB SUNNY     51  34  51 SW17G24   29.75F
DAYTON GENERAL SUNNY     50  32  50 SW18      29.76F
WILMINGTON     SUNNY     51  32  48 SW17G28   29.78S
$$

OHZ036-037-039>041-045>050-054>059-063>069-073>076-082>088-211500-
  CENTRAL AND SOUTHEAST OHIO

CITY           SKY/WX    TMP DP  RH WIND       PRES   REMARKS
COLUMBUS       MOSUNNY   51  33  50 SW15G23   29.76S
OSU AIRPORT    SUNNY     51  34  52 SW20G29   29.75F
BOLTON FIELD   SUNNY     52  36  54 SW20G28   29.77S
RICKENBACK AFB SUNNY     52  34  50 SW21G32   29.76F
NEWARK         SUNNY     52  35  52 W20G28    29.75S
MARION         SUNNY     50  31  48 SW17G29   29.71F
LANCASTER      SUNNY     52  32  46 W22G32    29.78S
ZANESVILLE     SUNNY     51  31  46 SW10G21   29.77F
NEW PHILLY     SUNNY     52  35  52 VRB7G25   29.75F
$$


USA.gov is the U.S. government's official web portal to all federal, state and local government web resources and services.